Regional Weather Roundup
Issued by NWS Grand Forks, ND

Home | Current Version | Previous Version | Text Only | Print | Product List | Glossary Off
Versions: 1 2 3 4 5 6 7 8 9 10 11 12 13 14 15 16 17 18 19 20 21 22 23 24 25 26 27 28 29 30 31 32 33 34 35 36 37 38 39 40 41 42 43 44 45 46 47 48 49 50

000
ASUS43 KFGF 010531
RWRFGF
PRAIRIE TO PINES  WEATHER ROUNDUP
NATIONAL WEATHER SERVICE EASTERN NORTH DAKOTA/GRAND FORKS ND
1200 AM CDT MON SEP 01 2014

 **SATELLITE DATA USED TO AUGMENT SKY COVER AT AUTOMATED STATIONS**
 *****  WEATHER ACROSS EASTERN NORTH DAKOTA  *****

CITY           SKY/WX    TMP DP  RH WIND       PRES   REMARKS
GRAND FORKS    PTCLDY    58  55  90 NW3       29.64R
GRAND FRKS AFB CLEAR     57  56  99 NW2       29.66R
GRAND FRKS NWS   N/A     54 N/A N/A MISG        N/A
DEVILS LAKE    CLEAR     55  48  76 CALM      29.69R
FARGO          CLOUDY    60  57  89 NW7       29.66R
WAHPETON ARPT  CLOUDY    59  55  88 SW6       29.67R VSB 1
$$

 ***** WEATHER ACROSS CENTRAL AND WESTERN NORTH DAKOTA  *****

CITY           SKY/WX    TMP DP  RH WIND       PRES   REMARKS
BISMARCK       LGT RAIN  59  56  89 NW8       29.76R
MINOT          MOCLDY    57  53  86 SW7       29.70S
JAMESTOWN      CLEAR     58  55  90 NW7       29.71R
MINOT AFB      MOCLDY    53  53  99 W7        29.70S
GARRISON         N/A     56  54  93 NW6       29.72F
WILLISTON      CLEAR     53  51  93 SW6       29.75F
DICKINSON      CLEAR     53  48  83 W6        29.78S
HETTINGER      MOCLDY    51  48  89 NW8       29.82R
$$

 *****  OTHER AIRPORT OBSERVATIONS IN OUR AREA  *****

CITY           SKY/WX    TMP DP  RH WIND       PRES   REMARKS
WALHALLA       FAIR      57  57 100 W6        29.65S
GRAFTON AIRPOR FAIR      59  59 100 NW6       29.64S
VALLEY CITY AR FAIR      55  55 100 NW8       29.69F
CANDO          FAIR      50  50 100 N3        29.70R
CAVALIER APRT  FAIR      55  55 100 W5        29.64S
GWINNER        CLEAR     59  59 100 NW5       29.69S
ROLLA          FAIR      54  54 100 NW5       29.70R
 ***** THE ABOVE OBSERVATIONS ARE NON NWS ARE NOT QUALITY
       CONTROLLED AND MAY MIS-REPORT RAIN FOR SNOW...
$$

  *****  WEATHER ACROSS NORTHERN MINNESOTA  *****

CITY           SKY/WX    TMP DP  RH WIND       PRES   REMARKS
FLAG ISLAND    CLOUDY    61  57  88 W13       29.57F
WARROAD        MOCLDY    59  55  88 W8        29.61F
ROSEAU         MOCLDY    61  55  82 W3        29.61F
HALLOCK        CLOUDY    61  57  88 NW5       29.63R
THF RVR FALLS  CLOUDY    55  54  94 S5        29.65S VSB 1/4
BAUDETTE       CLOUDY    61  58  90 CALM      29.60S
WASKISH        CLOUDY    61  57  88 W8        29.62S
CROOKSTON      MOCLDY    57  55  94 CALM      29.66R
$$
  *****  WEATHER ACROSS CENTRAL AND WEST MINNESOTA  *****

CITY           SKY/WX    TMP DP  RH WIND       PRES   REMARKS
FOSSTON        CLOUDY    57  55  94 CALM      29.65S
BEMIDJI        CLOUDY    59  58  97 W5        29.63S
PARK RAPIDS    CLOUDY    60  59  96 CALM      29.65R
ELBOW LAKE     CLOUDY    64  63  97 W5        29.67S
WADENA         CLOUDY    63  61  94 W3        29.65R
DETROIT LAKES  CLOUDY    63  59  88 W5        29.67S
MOORHEAD       CLOUDY    61  61 100 NW3       29.66F
FERGUS FALLS   CLOUDY    61  61 100 W5        29.67R FOG
MORRIS MN      CLOUDY    64  63  94 W3        29.66F
STAPLES        CLOUDY    64  63  94 CALM      29.64S
$$
  *****  WEATHER ELSEWHERE ACROSS MINNESOTA  *****

CITY           SKY/WX    TMP DP  RH WIND       PRES   REMARKS
DULUTH         CLOUDY    63  60  90 NW5       29.63F
INTRNTL FALLS  CLOUDY    63  60  90 W7        29.59R
ELY            MOCLDY    64  61  88 SW6       29.61F
CLOQUET        LGT RAIN  63  61  94 CALM      29.63F
WHEATON        CLOUDY    61  61 100 W6        29.68F
BRAINERD       LGT RAIN  64  64 100 S5        29.64F
HIBBING        CLOUDY    64  62  93 W5        29.63F
ALEXANDRIA     CLOUDY    66  63  90 W6        29.68S
SAINT CLOUD    LGT RAIN  68  65  90 CALM      29.63F
MINNEAPOLIS    LGT RAIN  66  65  96 N5        29.61F
$$

  *****  WEATHER ACROSS SOUTH DAKOTA  *****

CITY           SKY/WX    TMP DP  RH WIND       PRES   REMARKS
SIOUX FALLS    MOCLDY    61  59  93 NW5       29.70R
BROOKINGS      NOT AVBL
WATERTOWN      MOCLDY    63  61  93 W6        29.71S
HURON          CLOUDY    62  60  93 SW3       29.70R
SISSETON         N/A     63  63 100 W3        29.68R
ABERDEEN       CLOUDY    62  61  96 N5        29.69S
MITCHELL       CLOUDY    64  61  90 W8        29.73R
PIERRE         CLOUDY    64  61  90 W14       29.76R
MOBRIDGE       MOCLDY    63  59  87 NW7       29.74R
RAPID CITY     CLEAR     52  49  89 NW8       29.89S
$$

  *****  SOME WEATHER IN NEARBY STATES *****

CITY           SKY/WX    TMP DP  RH WIND       PRES   REMARKS
GLASGOW MT     CLEAR     56  48  74 NE10      29.79R
GREAT FALLS MT CLOUDY    55  38  52 W10       29.91F
CHEYENNE WY    CLEAR     51  42  71 S3        30.06R
SCOTTSBLUFF NE CLEAR     54  49  83 NW6       29.96R
OMAHA NE       CLOUDY    70  67  90 S7        29.69R
DES MOINES IA  TSTM      68  64  87 SE21G31   29.72F
DAVENPORT IA   CLOUDY    77  68  73 S17G23    29.81F
CHICAGO IL     PTCLDY    74  67  78 S8        29.87F
EAU CLAIRE WI  CLOUDY    67  65  93 CALM      29.69F
LA CROSSE WI   LGT RAIN  72  62  71 SW21G35   29.71R
$$

  *****  SOME NATIONAL WEATHER *****

CITY           SKY/WX    TMP DP  RH WIND       PRES   REMARKS
LA GUARDIA NY  CLOUDY    78  71  79 SW7       30.00R
RALEIGH NC     MOCLDY    79  71  76 S7        30.10S
ATLANTA GA     PTCLDY    78  70  76 S3        30.12F
NEW ORLEANS LA MOCLDY    82  75  79 SE10      30.03F
OKLAHOMA CITY  CLEAR     83  67  58 S17G26    29.79S
ALBUQUERQUE NM CLEAR     82  34  17 W15       30.03R
SALT LAKE CITY CLEAR     62  37  39 S5        29.98F
LOS ANGELES CA MOCLDY    73  66  78 SE7       29.81S
BOISE ID       CLEAR     60  42  51 VRB5      29.97R
SEATTLE WA     PTCLDY    61  52  72 SW3       30.06R
$$

*** WEATHER ACROSS MANITOBA...SASKATCHEWAN AND ONTARIO ***
                ***ONTARIO***

CITY           SKY/WX    TMP DP  RH WIND       PRES   REMARKS
GERALDTON      CLOUDY    59  54  82 SE7       29.71F
THUNDER BAY    CLOUDY    59  57  94 NE9       29.65F
SIOUX LOOKOUT  DRIZZLE   63  61  94 S7        29.52F
TORONTO        PTCLDY    68  63  83 NW6       29.95S
BIG TROUT LK   CLOUDY    57  54  88 SE7       29.58F FOG
PICKLE LAKE    NOT AVBL
DRYDEN         LGT RAIN  63  61  94 SW10      29.54R FOG
KENORA         DRIZZLE   61  59  94 NW8       29.57R
$$
                *** MANITOBA***

CITY           SKY/WX    TMP DP  RH WIND       PRES   REMARKS
BRANDON        PTCLDY    52  52 100 NW3       29.67R
DAUPHIN        CLEAR     54  52  94 SW6       29.63S
ISLAND LAKE    MOCLDY    57  57 100 CALM      29.54F
PILOT MOUND      N/A     52  50  93 NW2         N/A
THE PAS        PTCLDY    55  50  82 SW2       29.58
THOMPSON       PTCLDY    46  46 100 SE2       29.53F
WINNIPEG       MOCLDY    57  57 100 NW6       29.62S
LYNN LAKE      PTCLDY    50  46  87 MISG      29.55S
CHURCHILL      LGT RAIN  50  48  93 E17G24    29.54F FOG
GILLAM         MOCLDY    54  54 100 S5        29.54F
$$
                ***SASKATCHEWAN***

CITY           SKY/WX    TMP DP  RH WIND       PRES   REMARKS
ESTEVAN        PTCLDY    55  52  88 W5        29.74S
KINDERSLEY     CLEAR     46  41  81 SW2       29.78S
LLOYDMINSTER   PTCLDY    46  41  81 W8        29.74S
PRINCE ALBERT  MOCLDY    54  48  82 W6        29.66S
REGINA         MOCLDY    54  50  87 N7        29.75S
YORKTON        CLEAR     54  48  82 W8        29.68S
N. BATTLEFORD  CLEAR     52  43  71 W7        29.74S
LA RONGE       MOCLDY    52  46  82 W2        29.62S
SASKATOON      PTCLDY    48  46  93 SW8       29.73S
SWIFT CURRENT  CLEAR     45  41  87 S7        29.80S
$$
NOTE: THESE ARE AUTOMATED STATIONS WITH LIMITED QUALITY CONTROL
      "FAIR" INDICATES FEW OR NO CLOUDS BELOW 12,000 FEET WITH NO
      SIGNIFICANT WEATHER AND/OR OBSTRUCTIONS TO VISIBILITY.
      SKY/WX - SKY CONDITION AND SIGNIFICANT WEATHER.
      TMP - AIR TEMPERATURE.    DP   - DEWPOINT TEMPERATURE.
      RH  - RELATIVE HUMIDITY.  PRES - PRESSURE.
      HX  - HEAT INDEX.         WCI  - WIND CHILL INDEX.
$



USA.gov is the U.S. government's official web portal to all federal, state and local government web resources and services.